Weather History for MMZC - October, 2012

Change the Weather History Date:

Wednesday, October 3, 2012

  Actual Average Record
Temperature  
Mean Temperature 56 °F -  
Max Temperature 77 °F 72 °F 82 °F (2000)
Min Temperature 35 °F 48 °F 35 °F (2008)
Degree Days  
Heating Degree Days 9    
Growing Degree Days 6 (Base 50)    
Moisture  
Dew Point 33 °F    
Average Humidity 45    
Maximum Humidity 70    
Minimum Humidity 21    
Precipitation  
Precipitation 0.00 in - - ()
Sea Level Pressure  
Sea Level Pressure 30.34 in    
Wind  
Wind Speed 3 mph ()    
Max Wind Speed 12 mph    
Max Gust Speed -    
Visibility 10.0 miles    
Events      
Averages and records for this station are not official NWS values.
T = Trace of Precipitation, MM = Missing Value Source: Averaged Metar Reports

Daily Weather History Graph

Daily Weather History Graph

Search for Another Location

Airport or City:

Trip Planner

Search our weather history database for the weather conditions in past years. The results will help you decide how hot, cold, wet, or windy it might be!

Date:

Astronomy

Oct. 03, 2012 Rise Set
Actual Time 7:43 AM CDT 7:35 PM CDT
Civil Twilight 7:20 AM CDT 7:58 PM CDT
Nautical Twilight 6:54 AM CDT 8:24 PM CDT
Astronomical Twilight 6:28 AM CDT 8:50 PM CDT
Moon 9:57 PM CDT (10/3) 10:41 AM CDT (10/3)
Length of Visible Light 12h 37m
Length of Day
11h 52m
Waning Gibbous, 88% of the Moon is Illuminated
Oct 3
Waning Gibbous
Oct 8
Last Quarter
Oct 15
New
Oct 21
First Quarter
Oct 29
Full

Hourly Weather History & Observations

Time (CDT) Temp. Windchill Dew Point Humidity Pressure Visibility Wind Dir Wind Speed Gust Speed Precip Events Conditions
12:44 AM 46.4 °F - 30.2 °F 53% 30.32 in 10.0 mi Calm Calm - N/A   Clear
1:44 AM 44.6 °F 39.7 °F 28.4 °F 53% 30.32 in 10.0 mi West 9.2 mph - N/A   Clear
2:44 AM 42.8 °F 39.3 °F 30.2 °F 61% 30.31 in 10.0 mi SSW 5.8 mph - N/A   Clear
3:44 AM 42.8 °F 37.0 °F 30.2 °F 61% 30.31 in 10.0 mi South 10.4 mph - N/A   Clear
4:44 AM 41.0 °F - 28.4 °F 61% 30.30 in 10.0 mi Calm Calm - N/A   Clear
5:45 AM 39.2 °F - 28.4 °F 65% 30.31 in 10.0 mi Calm Calm - N/A   Clear
6:42 AM 37.4 °F - 26.6 °F 65% 30.33 in 10.0 mi Calm Calm - N/A   Clear
7:40 AM 35.6 °F 32.8 °F 26.6 °F 70% 30.34 in 10.0 mi South 3.5 mph - N/A   Clear
9:22 AM 50.0 °F - 39.2 °F 66% 30.37 in 10.0 mi Calm Calm - N/A   Clear
9:40 AM 53.6 °F - 41.0 °F 62% 30.38 in 10.0 mi Calm Calm - N/A   Clear
10:53 AM 62.6 °F - 44.6 °F 52% 30.38 in 10.0 mi SSE 3.5 mph - N/A   Clear
11:40 AM 66.2 °F - 42.8 °F 43% 30.38 in 10.0 mi ESE 5.8 mph - N/A   Clear
12:41 PM 71.6 °F - 35.6 °F 27% 30.36 in 10.0 mi Calm Calm - N/A   Clear
1:40 PM 73.4 °F - 37.4 °F 27% 30.34 in 10.0 mi East 5.8 mph - N/A   Clear
3:14 PM 77.0 °F - 35.6 °F 22% 30.31 in 10.0 mi East 11.5 mph - N/A   Clear
3:42 PM 77.0 °F - 33.8 °F 21% 30.30 in 10.0 mi Calm Calm - N/A   Clear
4:43 PM 77.0 °F - 33.8 °F 21% 30.30 in 10.0 mi ENE 9.2 mph - N/A   Clear
5:47 PM 75.2 °F - 32.0 °F 21% 30.30 in 10.0 mi NNE 6.9 mph - N/A   Clear
6:47 PM 73.4 °F - 33.8 °F 23% 30.31 in 10.0 mi East 8.1 mph - N/A   Clear
7:46 PM 50.0 °F - 30.2 °F 47% 30.32 in 10.0 mi ENE 6.9 mph - N/A   Clear
8:47 PM 59.0 °F - 30.2 °F 34% 30.33 in 10.0 mi Calm Calm - N/A   Clear
9:50 PM 55.4 °F - 28.4 °F 36% 30.36 in 10.0 mi Calm Calm - N/A   Clear
10:47 PM 51.8 °F - 30.2 °F 44% 30.38 in 10.0 mi Calm Calm - N/A   Clear
11:41 PM 48.2 °F - 30.2 °F 50% 30.39 in 10.0 mi SSE 4.6 mph - N/A   Clear